CW2674 Weather Reports


Display with metric or nautical units.
time (UTC)temp
F
wind
direction
speed
MPH
gust
MPH
rain 1hr
in
rain 24hr
in
rain mn
in
humidity
%
barometer
mb
20260905204404 102 317 3.0 6.0 0.00 0.00 0.00 25 1011.7
20260905201404 101 273 5.0 8.0 0.00 0.00 0.00 25 1012.2
20260905200405 102 224 2.0 5.0 0.00 0.00 0.00 27 1012.3
20260905194405 101 199 2.0 7.0 0.00 0.00 0.00 26 1012.6
20260905193403 102 105 5.0 9.0 0.00 0.00 0.00 28 1012.6
20260905191404 100 106 3.0 8.0 0.00 0.00 0.00 30 1013.0
20260905190404 100 180 3.0 9.0 0.00 0.00 0.00 28 1013.1
20260905184406 99 170 3.0 8.0 0.00 0.00 0.00 30 1013.3
20260905183405 99 245 5.0 9.0 0.00 0.00 0.00 30 1013.5
20260905181406 98 188 3.0 3.0 0.00 0.00 0.00 29 1013.8
20260905180403 97 193 4.0 10.0 0.00 0.00 0.00 31 1013.7
20260905174404 96 186 3.0 6.0 0.00 0.00 0.00 33 1013.8
20260905173406 95 211 3.0 6.0 0.00 0.00 0.00 32 1013.9
20260905171404 94 137 4.0 3.0 0.00 0.00 0.00 33 1013.7
20260905170405 92 264 0.0 6.0 0.00 0.00 0.00 33 1013.6
20260905164404 91 264 3.0 6.0 0.00 0.00 0.00 35 1013.5
20260905163404 91 265 1.0 3.0 0.00 0.00 0.00 34 1013.5
20260905161405 90 277 0.0 3.0 0.00 0.00 0.00 38 1013.4
20260905160405 89 278 2.0 3.0 0.00 0.00 0.00 37 1013.4
20260905154405 89 273 2.0 3.0 0.00 0.00 0.00 38 1013.2
20260905153404 89 17 1.0 3.0 0.00 0.00 0.00 38 1013.2
20260905150405 87 19 1.0 2.0 0.00 0.00 0.00 41 1013.2
20260905144404 85 19 0.0 1.0 0.00 0.00 0.00 42 1013.0
20260905143405 84 19 0.0 2.0 0.00 0.00 0.00 44 1012.9
20260905134406 81 20 0.0 0.0 0.00 0.00 0.00 46 1012.3
20260905133404 81 20 0.0 0.0 0.00 0.00 0.00 46 1012.4
20260905131404 81 20 0.0 1.0 0.00 0.00 0.00 45 1012.1
20260905130405 82 20 0.0 1.0 0.00 0.00 0.00 45 1012.0
20260905123406 82 20 0.0 2.0 0.00 0.00 0.00 44 1011.6
20260905071404 90 234 3.0 8.0 0.00 0.00 0.00 33 1010.9
20260905070405 90 236 3.0 9.0 0.00 0.00 0.00 33 1011.0
20260905064406 91 234 3.0 12.0 0.00 0.00 0.00 32 1010.9
20260905063404 91 263 3.0 9.0 0.00 0.00 0.00 32 1010.8
20260905061406 92 270 5.0 13.0 0.00 0.00 0.00 31 1010.5
20260905060404 92 265 6.0 10.0 0.00 0.00 0.00 31 1010.5
20260905054404 92 245 5.0 7.0 0.00 0.00 0.00 31 1010.5
20260905053404 92 259 3.0 8.0 0.00 0.00 0.00 31 1010.5
20260905050404 93 251 3.0 7.0 0.00 0.00 0.00 30 1010.3
20260905044403 94 238 1.0 8.0 0.00 0.00 0.00 29 1010.3
20260905043404 94 242 4.0 9.0 0.00 0.00 0.00 29 1010.3
20260905041404 94 245 5.0 8.0 0.00 0.00 0.00 28 1009.9
20260905033405 95 207 6.0 9.0 0.00 0.00 0.00 28 1009.7
20260905031404 96 244 2.0 6.0 0.00 0.00 0.00 29 1009.5
20260905030404 96 251 6.0 12.0 0.00 0.00 0.00 29 1009.3
20260905024404 97 254 4.0 9.0 0.00 0.00 0.00 28 1009.0
20260905023407 97 261 4.0 13.0 0.00 0.00 0.00 28 1008.8
20260905021405 98 246 4.0 12.0 0.00 0.00 0.00 27 1008.7
20260904223404 104 269 2.0 9.0 0.00 0.00 0.00 26 1008.9
20260904221404 103 226 2.0 3.0 0.00 0.00 0.00 27 1009.2
20260904214405 102 29 3.0 6.0 0.00 0.00 0.00 30 1009.6
20260904213403 101 268 6.0 9.0 0.00 0.00 0.00 31 1009.8
20260904210403 102 288 6.0 8.0 0.00 0.00 0.00 30 1010.1